Time,TemperatureF,DewpointF,PressureIn,WindDirection,WindDirectionDegrees,WindSpeedMPH,WindSpeedGustMPH,Humidity,HourlyPrecipIn,Conditions,Clouds,dailyrainin,SoftwareType,DateUTC
2013-02-05 00:01:00,46.0,35.0,29.92,SSW,200,0.0,0.0,65,0.00,,,0.00,,2013-02-05 08:01:00,
2013-02-05 00:11:00,46.0,35.0,29.92,SSW,200,0.0,0.0,65,0.00,,,0.00,,2013-02-05 08:11:00,
2013-02-05 00:21:00,46.0,35.0,29.92,SSW,200,0.0,0.0,64,0.00,,,0.00,,2013-02-05 08:21:00,
2013-02-05 00:31:00,46.0,35.0,29.92,North,360,0.0,1.0,65,0.00,,,0.00,,2013-02-05 08:31:00,
2013-02-05 00:41:00,46.0,35.0,29.92,North,360,0.0,1.0,65,0.00,,,0.00,,2013-02-05 08:41:00,
2013-02-05 00:52:00,46.0,35.0,29.92,SW,215,0.0,1.0,64,0.00,,,0.00,,2013-02-05 08:52:00,
2013-02-05 01:02:00,45.0,34.0,29.92,SW,226,2.0,6.0,65,0.00,,,0.00,,2013-02-05 09:02:00,
2013-02-05 01:11:00,45.0,34.0,29.91,SSW,209,1.0,4.0,64,0.00,,,0.00,,2013-02-05 09:11:00,
2013-02-05 01:21:00,45.0,34.0,29.91,SSW,209,1.0,4.0,64,0.00,,,0.00,,2013-02-05 09:21:00,
2013-02-05 01:31:00,44.0,33.0,29.92,NW,317,1.0,2.0,64,0.00,,,0.00,,2013-02-05 09:31:00,
2013-02-05 01:41:00,44.0,33.0,29.92,NW,317,1.0,2.0,64,0.00,,,0.00,,2013-02-05 09:41:00,
2013-02-05 01:51:00,44.0,33.0,29.92,WSW,243,2.0,5.0,64,0.00,,,0.00,,2013-02-05 09:51:00,
2013-02-05 02:01:00,44.0,33.0,29.92,SSW,207,2.0,4.0,64,0.00,,,0.00,,2013-02-05 10:01:00,
2013-02-05 02:11:00,44.0,33.0,29.92,SSW,200,0.0,3.0,64,0.00,,,0.00,,2013-02-05 10:11:00,
2013-02-05 02:21:00,44.0,33.0,29.92,SSW,200,0.0,3.0,64,0.00,,,0.00,,2013-02-05 10:21:00,
2013-02-05 02:31:00,45.0,34.0,29.92,SW,222,2.0,4.0,65,0.00,,,0.00,,2013-02-05 10:31:00,
2013-02-05 02:42:00,45.0,34.0,29.92,SW,222,2.0,4.0,65,0.00,,,0.00,,2013-02-05 10:42:00,
2013-02-05 02:52:00,45.0,34.0,29.92,SW,222,2.0,6.0,64,0.00,,,0.00,,2013-02-05 10:52:00,
2013-02-05 03:01:00,45.0,34.0,29.92,SW,226,4.0,7.0,64,0.00,,,0.00,,2013-02-05 11:01:00,
2013-02-05 03:11:00,45.0,34.0,29.92,SW,226,4.0,7.0,64,0.00,,,0.00,,2013-02-05 11:11:00,
2013-02-05 03:21:00,45.0,34.0,29.92,SW,231,2.0,12.0,64,0.00,,,0.00,,2013-02-05 11:21:00,
2013-02-05 03:31:00,46.0,35.0,29.91,SW,225,2.0,6.0,65,0.00,,,0.00,,2013-02-05 11:31:00,
2013-02-05 03:41:00,46.0,35.0,29.91,SW,225,2.0,6.0,65,0.00,,,0.00,,2013-02-05 11:41:00,
2013-02-05 03:52:00,46.0,34.0,29.90,West,267,3.0,14.0,63,0.00,,,0.00,,2013-02-05 11:52:00,
2013-02-05 04:01:00,46.0,34.0,29.90,West,265,2.0,12.0,63,0.00,,,0.00,,2013-02-05 12:01:00,
2013-02-05 04:12:00,46.0,34.0,29.90,West,265,2.0,12.0,63,0.00,,,0.00,,2013-02-05 12:12:00,
2013-02-05 04:21:00,46.0,34.0,29.91,SW,234,2.0,4.0,63,0.00,,,0.00,,2013-02-05 12:21:00,
2013-02-05 04:31:00,46.0,35.0,29.91,WSW,238,2.0,10.0,64,0.00,,,0.00,,2013-02-05 12:31:00,
2013-02-05 04:41:00,46.0,35.0,29.91,WSW,239,1.0,6.0,64,0.00,,,0.00,,2013-02-05 12:41:00,
2013-02-05 04:51:00,46.0,35.0,29.91,WSW,239,1.0,6.0,64,0.00,,,0.00,,2013-02-05 12:51:00,
2013-02-05 05:01:00,46.0,35.0,29.91,SW,218,1.0,6.0,65,0.01,,,0.01,,2013-02-05 13:01:00,
2013-02-05 05:11:00,46.0,35.0,29.91,SW,234,2.0,4.0,65,0.01,,,0.01,,2013-02-05 13:11:00,
2013-02-05 05:21:00,46.0,35.0,29.91,SW,234,2.0,4.0,65,0.01,,,0.01,,2013-02-05 13:21:00,
2013-02-05 05:31:00,46.0,35.0,29.91,WSW,247,2.0,5.0,65,0.00,,,0.01,,2013-02-05 13:31:00,
2013-02-05 05:41:00,46.0,35.0,29.91,WSW,247,2.0,5.0,65,0.00,,,0.01,,2013-02-05 13:41:00,
2013-02-05 05:51:00,46.0,35.0,29.90,WSW,248,2.0,6.0,65,0.00,,,0.01,,2013-02-05 13:51:00,
2013-02-05 06:01:00,45.0,34.0,29.89,WSW,248,3.0,11.0,66,0.00,,,0.01,,2013-02-05 14:01:00,
2013-02-05 06:11:00,45.0,34.0,29.89,WSW,248,3.0,11.0,66,0.00,,,0.01,,2013-02-05 14:11:00,
2013-02-05 06:21:00,45.0,34.0,29.89,WSW,256,2.0,8.0,66,0.00,,,0.01,,2013-02-05 14:21:00,
2013-02-05 06:31:00,45.0,34.0,29.88,WSW,258,1.0,6.0,65,0.00,,,0.01,,2013-02-05 14:31:00,
2013-02-05 06:41:00,45.0,34.0,29.88,WSW,258,1.0,6.0,65,0.00,,,0.01,,2013-02-05 14:41:00,
2013-02-05 06:52:00,46.0,35.0,29.89,WSW,243,3.0,9.0,66,0.00,,,0.01,,2013-02-05 14:52:00,
2013-02-05 07:01:00,46.0,35.0,29.88,SW,236,2.0,7.0,65,0.00,,,0.01,,2013-02-05 15:01:00,
2013-02-05 07:11:00,46.0,35.0,29.88,SW,236,2.0,7.0,65,0.00,,,0.01,,2013-02-05 15:11:00,
2013-02-05 07:21:00,46.0,35.0,29.88,West,264,2.0,6.0,65,0.00,,,0.01,,2013-02-05 15:21:00,
2013-02-05 07:32:00,46.0,35.0,29.89,SW,230,2.0,11.0,64,0.00,,,0.01,,2013-02-05 15:32:00,
2013-02-05 07:41:00,46.0,35.0,29.89,SW,215,1.0,6.0,64,0.00,,,0.01,,2013-02-05 15:41:00,
2013-02-05 07:51:00,46.0,35.0,29.89,SW,215,1.0,6.0,64,0.00,,,0.01,,2013-02-05 15:51:00,
2013-02-05 08:01:00,46.0,35.0,29.89,SSW,211,3.0,6.0,65,0.00,,,0.01,,2013-02-05 16:01:00,
2013-02-05 08:11:00,46.0,35.0,29.89,SSW,211,3.0,6.0,65,0.00,,,0.01,,2013-02-05 16:11:00,
2013-02-05 08:21:00,46.0,35.0,29.89,West,273,3.0,10.0,64,0.00,,,0.01,,2013-02-05 16:21:00,
2013-02-05 08:32:00,44.0,37.0,29.89,West,264,2.0,8.0,76,0.00,,,0.01,,2013-02-05 16:32:00,
2013-02-05 08:41:00,44.0,37.0,29.89,West,264,2.0,8.0,76,0.00,,,0.01,,2013-02-05 16:41:00,
2013-02-05 08:51:00,45.0,38.0,29.90,SW,230,3.0,8.0,76,0.00,,,0.01,,2013-02-05 16:51:00,
2013-02-05 09:01:00,46.0,39.0,29.90,WSW,253,3.0,11.0,76,0.00,,,0.01,,2013-02-05 17:01:00,
2013-02-05 09:11:00,46.0,39.0,29.90,WSW,253,3.0,11.0,76,0.00,,,0.01,,2013-02-05 17:11:00,
2013-02-05 09:21:00,47.0,39.0,29.90,SW,236,4.0,7.0,73,0.00,,,0.01,,2013-02-05 17:21:00,
2013-02-05 09:32:00,48.0,38.0,29.90,WSW,249,2.0,8.0,69,0.00,,,0.01,,2013-02-05 17:32:00,
2013-02-05 09:41:00,48.0,38.0,29.90,WSW,249,2.0,8.0,69,0.00,,,0.01,,2013-02-05 17:41:00,
2013-02-05 09:52:00,48.0,38.0,29.90,WSW,242,4.0,9.0,67,0.00,,,0.01,,2013-02-05 17:52:00,
2013-02-05 10:01:00,50.0,39.0,29.90,West,271,3.0,10.0,65,0.00,,,0.01,,2013-02-05 18:01:00,
2013-02-05 10:11:00,50.0,39.0,29.90,West,271,3.0,10.0,65,0.00,,,0.01,,2013-02-05 18:11:00,
2013-02-05 10:21:00,50.0,38.0,29.90,West,272,3.0,11.0,62,0.00,,,0.01,,2013-02-05 18:21:00,
2013-02-05 10:31:00,52.0,39.0,29.90,SW,224,2.0,9.0,62,0.00,,,0.01,,2013-02-05 18:31:00,
2013-02-05 10:42:00,52.0,39.0,29.90,SW,224,2.0,9.0,62,0.00,,,0.01,,2013-02-05 18:42:00,
2013-02-05 10:51:00,52.0,39.0,29.90,WNW,293,4.0,10.0,61,0.00,,,0.01,,2013-02-05 18:51:00,
2013-02-05 11:01:00,52.0,39.0,29.91,West,264,2.0,7.0,60,0.00,,,0.01,,2013-02-05 19:01:00,
2013-02-05 11:11:00,52.0,39.0,29.91,West,264,2.0,7.0,60,0.00,,,0.01,,2013-02-05 19:11:00,
2013-02-05 11:21:00,52.0,38.0,29.91,WSW,247,3.0,7.0,59,0.00,,,0.01,,2013-02-05 19:21:00,
2013-02-05 11:31:00,52.0,38.0,29.90,SW,217,2.0,12.0,58,0.00,,,0.01,,2013-02-05 19:31:00,
2013-02-05 11:42:00,52.0,38.0,29.90,SW,217,2.0,12.0,58,0.00,,,0.01,,2013-02-05 19:42:00,
2013-02-05 11:51:00,52.0,38.0,29.91,SW,218,3.0,12.0,58,0.00,,,0.01,,2013-02-05 19:51:00,
2013-02-05 12:01:00,52.0,38.0,29.91,WSW,252,3.0,12.0,58,0.00,,,0.01,,2013-02-05 20:01:00,
2013-02-05 12:11:00,52.0,38.0,29.91,WSW,252,3.0,12.0,58,0.00,,,0.01,,2013-02-05 20:11:00,
2013-02-05 12:21:00,52.0,38.0,29.91,SW,226,4.0,9.0,58,0.00,,,0.01,,2013-02-05 20:21:00,
2013-02-05 12:31:00,53.0,38.0,29.90,West,268,3.0,10.0,56,0.00,,,0.01,,2013-02-05 20:31:00,
2013-02-05 12:41:00,53.0,38.0,29.90,West,268,3.0,10.0,56,0.00,,,0.01,,2013-02-05 20:41:00,
2013-02-05 12:52:00,54.0,36.0,29.90,SW,225,5.0,13.0,50,0.00,,,0.01,,2013-02-05 20:52:00,
2013-02-05 13:01:00,54.0,36.0,29.90,SW,224,2.0,7.0,51,0.00,,,0.01,,2013-02-05 21:01:00,
2013-02-05 13:11:00,54.0,36.0,29.90,SW,224,2.0,7.0,51,0.00,,,0.01,,2013-02-05 21:11:00,
2013-02-05 13:21:00,54.0,37.0,29.89,WNW,301,5.0,14.0,52,0.00,,,0.01,,2013-02-05 21:21:00,
2013-02-05 13:31:00,55.0,38.0,29.89,WNW,297,4.0,9.0,52,0.00,,,0.01,,2013-02-05 21:31:00,
2013-02-05 13:41:00,55.0,38.0,29.89,WNW,297,4.0,9.0,52,0.00,,,0.01,,2013-02-05 21:41:00,
2013-02-05 13:51:00,55.0,37.0,29.88,SW,230,2.0,9.0,51,0.00,,,0.01,,2013-02-05 21:51:00,
2013-02-05 14:01:00,54.0,35.0,29.88,WSW,245,3.0,9.0,49,0.00,,,0.01,,2013-02-05 22:01:00,
2013-02-05 14:21:00,54.0,35.0,29.88,WSW,247,2.0,6.0,49,0.00,,,0.01,,2013-02-05 22:21:00,
2013-02-05 14:31:00,55.0,35.0,29.88,SW,229,1.0,8.0,46,0.00,,,0.01,,2013-02-05 22:31:00,
2013-02-05 14:41:00,55.0,35.0,29.88,SW,229,1.0,8.0,46,0.00,,,0.01,,2013-02-05 22:41:00,
2013-02-05 14:51:00,55.0,32.0,29.88,SW,215,3.0,7.0,42,0.00,,,0.01,,2013-02-05 22:51:00,
2013-02-05 15:01:00,54.0,30.0,29.87,SW,217,4.0,10.0,40,0.00,,,0.01,,2013-02-05 23:01:00,
2013-02-05 15:21:00,54.0,31.0,29.87,SW,221,4.0,9.0,42,0.00,,,0.01,,2013-02-05 23:21:00,
2013-02-05 15:31:00,54.0,31.0,29.88,SW,221,5.0,10.0,42,0.00,,,0.01,,2013-02-05 23:31:00,
2013-02-05 15:41:00,54.0,31.0,29.88,SW,221,5.0,10.0,42,0.00,,,0.01,,2013-02-05 23:41:00,
2013-02-05 15:51:00,55.0,31.0,29.88,SW,225,4.0,12.0,39,0.00,,,0.01,,2013-02-05 23:51:00,
2013-02-05 16:01:00,55.0,29.0,29.87,SSW,212,4.0,9.0,36,0.00,,,0.01,,2013-02-06 00:01:00,
2013-02-05 16:21:00,55.0,32.0,29.88,SSW,206,3.0,5.0,41,0.00,,,0.01,,2013-02-06 00:21:00,
2013-02-05 16:31:00,52.0,29.0,29.88,SSW,205,3.0,7.0,41,0.00,,,0.01,,2013-02-06 00:31:00,
2013-02-05 16:41:00,52.0,29.0,29.88,SSW,205,3.0,7.0,41,0.00,,,0.01,,2013-02-06 00:41:00,
2013-02-05 16:51:00,52.0,29.0,29.89,WSW,237,3.0,7.0,41,0.00,,,0.01,,2013-02-06 00:51:00,
2013-02-05 17:01:00,49.0,34.0,29.91,SW,214,3.0,7.0,57,0.02,,,0.03,,2013-02-06 01:01:00,
2013-02-05 17:11:00,49.0,34.0,29.91,SW,214,3.0,7.0,57,0.02,,,0.03,,2013-02-06 01:11:00,
2013-02-05 17:21:00,48.0,32.0,29.90,SW,216,5.0,11.0,54,0.03,,,0.04,,2013-02-06 01:21:00,
2013-02-05 17:31:00,47.0,32.0,29.91,SSW,209,4.0,7.0,55,0.01,,,0.05,,2013-02-06 01:31:00,
2013-02-05 17:41:00,47.0,32.0,29.91,SSW,209,4.0,7.0,55,0.01,,,0.05,,2013-02-06 01:41:00,
2013-02-05 17:52:00,47.0,32.0,29.92,SSW,207,2.0,7.0,56,0.01,,,0.05,,2013-02-06 01:52:00,
2013-02-05 18:01:00,47.0,33.0,29.92,SSW,199,0.0,4.0,57,0.01,,,0.05,,2013-02-06 02:01:00,
2013-02-05 18:21:00,46.0,32.0,29.92,SSW,199,1.0,2.0,58,0.01,,,0.05,,2013-02-06 02:21:00,
2013-02-05 18:31:00,46.0,32.0,29.92,WSW,254,2.0,5.0,58,0.00,,,0.05,,2013-02-06 02:31:00,
2013-02-05 18:41:00,46.0,32.0,29.92,WSW,254,2.0,5.0,58,0.00,,,0.05,,2013-02-06 02:41:00,
2013-02-05 18:52:00,46.0,33.0,29.92,SSW,199,0.0,3.0,61,0.00,,,0.05,,2013-02-06 02:52:00,
2013-02-05 19:02:00,46.0,34.0,29.92,SW,220,0.0,3.0,62,0.01,,,0.06,,2013-02-06 03:02:00,
2013-02-05 19:21:00,46.0,34.0,29.93,SSW,202,1.0,1.0,63,0.01,,,0.06,,2013-02-06 03:21:00,
2013-02-05 19:31:00,46.0,34.0,29.94,SSW,200,0.0,0.0,63,0.01,,,0.07,,2013-02-06 03:31:00,
2013-02-05 19:41:00,46.0,34.0,29.94,SSW,200,0.0,0.0,63,0.01,,,0.07,,2013-02-06 03:41:00,
2013-02-05 19:52:00,46.0,35.0,29.94,SW,219,0.0,2.0,64,0.01,,,0.07,,2013-02-06 03:52:00,
2013-02-05 20:01:00,46.0,35.0,29.94,SW,235,1.0,4.0,66,0.01,,,0.07,,2013-02-06 04:01:00,
2013-02-05 20:11:00,46.0,35.0,29.94,SW,235,1.0,4.0,66,0.01,,,0.07,,2013-02-06 04:11:00,
2013-02-05 20:21:00,46.0,35.0,29.94,WSW,242,1.0,4.0,65,0.03,,,0.09,,2013-02-06 04:21:00,
2013-02-05 20:31:00,46.0,35.0,29.95,West,267,1.0,5.0,66,0.01,,,0.10,,2013-02-06 04:31:00,
2013-02-05 20:41:00,46.0,35.0,29.95,West,267,1.0,5.0,66,0.01,,,0.10,,2013-02-06 04:41:00,
2013-02-05 20:51:00,46.0,35.0,29.95,West,280,1.0,6.0,65,0.02,,,0.11,,2013-02-06 04:51:00,
2013-02-05 21:01:00,46.0,35.0,29.95,SSW,212,1.0,4.0,65,0.02,,,0.11,,2013-02-06 05:01:00,
2013-02-05 21:11:00,46.0,35.0,29.95,SSW,212,1.0,4.0,65,0.02,,,0.11,,2013-02-06 05:11:00,
2013-02-05 21:22:00,46.0,35.0,29.96,North,360,0.0,4.0,65,0.02,,,0.11,,2013-02-06 05:22:00,
2013-02-05 21:31:00,45.0,34.0,29.96,West,272,1.0,6.0,65,0.00,,,0.11,,2013-02-06 05:31:00,
2013-02-05 21:41:00,45.0,34.0,29.96,West,272,1.0,6.0,65,0.00,,,0.11,,2013-02-06 05:41:00,
2013-02-05 21:52:00,45.0,34.0,29.96,SW,218,1.0,5.0,65,0.00,,,0.11,,2013-02-06 05:52:00,
2013-02-05 22:01:00,45.0,34.0,29.96,SW,218,1.0,5.0,65,0.00,,,0.11,,2013-02-06 06:01:00,
2013-02-05 22:11:00,45.0,34.0,29.96,SW,218,1.0,5.0,65,0.00,,,0.11,,2013-02-06 06:11:00,
2013-02-05 22:21:00,45.0,34.0,29.97,West,267,1.0,6.0,66,0.00,,,0.12,,2013-02-06 06:21:00,
2013-02-05 22:31:00,45.0,34.0,29.97,SW,230,0.0,2.0,66,0.00,,,0.12,,2013-02-06 06:31:00,
2013-02-05 22:42:00,45.0,34.0,29.97,SW,230,0.0,2.0,66,0.00,,,0.12,,2013-02-06 06:42:00,
2013-02-05 22:51:00,45.0,34.0,29.97,SSW,212,1.0,3.0,66,0.00,,,0.12,,2013-02-06 06:51:00,
2013-02-05 23:01:00,45.0,34.0,29.98,SSW,203,1.0,4.0,66,0.00,,,0.12,,2013-02-06 07:01:00,
2013-02-05 23:11:00,45.0,34.0,29.98,SSW,203,1.0,4.0,66,0.00,,,0.12,,2013-02-06 07:11:00,
2013-02-05 23:21:00,45.0,34.0,29.98,SW,215,0.0,3.0,66,0.01,,,0.13,,2013-02-06 07:21:00,
2013-02-05 23:32:00,45.0,34.0,29.98,SW,223,1.0,9.0,65,0.00,,,0.13,,2013-02-06 07:32:00,
2013-02-05 23:41:00,45.0,34.0,29.98,SW,223,1.0,9.0,65,0.00,,,0.13,,2013-02-06 07:41:00,
2013-02-05 23:51:00,45.0,34.0,29.99,SW,214,0.0,4.0,65,0.00,,,0.13,,2013-02-06 07:51:00,